Aérodrome :
LOGIN :

S'inscrire | Disclaimer

   EN    FR    IT 

 










Légende :    VFR   VFR Marginal   IFR   IFR Intensif   IFR Très Intensif
Visi : 
Plafond : 
>= 8 km
>= 3000ft
5 à 8 km
1000 à 3000 ft
1500m à 5 km
500 à 1000 ft
800 à 1500m
200 à 500 ft
< 800m
< 200 ft
Symboles :   Orages  Brouillard  Fortes neiges  Fortes précipitations  Vent > 20 kt
SIGMETs :   Divers  Orages  Givrage  Turbulence  Onde Orograph.  Cendres Volcan.







- Altitude de l'aérodrome : 142 ft
- Code IATA : FLR


LIRQ - Firenze Amerigo Vespucci

DERNIER METAR :
  • 201020Z 03011KT CAVOK 26/08 Q1022

METARs EXPIRÉS :
  • 200950Z 04009KT 010V070 CAVOK 26/10 Q1022
  • 200920Z 04011KT 360V070 CAVOK 25/09 Q1022
  • 200850Z 04012KT 010V070 CAVOK 24/08 Q1023
  • 200820Z 05010KT 010V080 CAVOK 24/09 Q1023
  • 200750Z 04004KT 340V100 CAVOK 24/08 Q1023

TAF TAF LIRQ
Valide du 20 à 06h jusqu'au 21 à 06h UTC


200500Z 2006/2106 VRB05KT 9999 SCT040
BECMG 2009/2011 05010KT
BECMG 2017/2019 VRB05KT
Pas de NOTAMs connus pour ce terrain.



MET'MAP, la Météo Aéronautique d'un coup d'oeil ! - Copyright ORBIFLY Décembre 2007 - Disclaimer

ORBIFLY MET'MAP TEAM :

Programmation & Développement : Alexandra Zaïnal
Conception & Développement : Baudouin d'Aumeries
Co-Programmation & Développement : Marc-Olivier Méhu
Soutien technique & logistique : Manuel Goepfert

Contact : metmap@orbifly.com




SOURCES & CREDITS :

   NOAA